Regional Weather Roundup
Issued by NWS Little Rock, AR

Home | Current Version | Previous Version | Graphics & Text | Print | Product List | Glossary On
Versions: 1 2 3 4 5 6 7 8 9 10 11 12 13 14 15 16 17 18 19 20 21 22 23 24 25 26 27 28 29 30 31 32 33 34 35 36 37 38 39 40 41 42 43 44 45 46 47 48 49 50
500
ASUS44 KLZK 240805
RWRLZK

WEATHER ROUNDUP FOR ARKANSAS
NATIONAL WEATHER SERVICE LITTLE ROCK AR
300 AM CDT TUE APR 24 2018

NOTE: "FAIR" INDICATES FEW OR NO CLOUDS BELOW 12,000 FEET WITH NO
SIGNIFICANT WEATHER AND/OR OBSTRUCTIONS TO VISIBILITY.

ARZ001-003-010-029-240900-
NORTHWEST ARKANSAS

CITY           SKY/WX    TMP DP  RH WIND       PRES   REMARKS
FAYETTEVILLE   CLEAR     46  45  96 CALM      30.02S
FORT SMITH     CLEAR     54  49  83 SW5       30.00S
HARRISON       CLEAR     52  49  89 NW5       30.00S
BENTONVILLE    CLEAR     51  45  79 CALM      30.04S
ROGERS         CLEAR     51  44  77 NW3       30.03S
SILOAM SPGS    CLEAR     51  44  77 N3        30.03S
HIGHFILL       CLEAR     50  43  77 NW3       30.02F
$$

ARZ004-005-016-240900-
NORTH CENTRAL ARKANSAS

CITY           SKY/WX    TMP DP  RH WIND       PRES   REMARKS
BATESVILLE     CLOUDY    54  53  97 W5        29.96S
FLIPPIN        MOCLDY    55  51  86 NW3       29.99R
MTN HOME       PTCLDY    49  49 100 NW5       29.97R
$$

ARZ040-041-240900-
WEST CENTRAL ARKANSAS

CITY           SKY/WX    TMP DP  RH WIND       PRES   REMARKS
MENA           CLEAR     50  48  93 W3        30.01S
MOUNT IDA      CLEAR     50  50 100 CALM      29.97S FOG
$$

ARZ009-017-025-026-028-240900-
NORTHEAST ARKANSAS

CITY           SKY/WX    TMP DP  RH WIND       PRES   REMARKS
CORNING        CLOUDY    57  57 100 N6        29.93F
JONESBORO      CLOUDY    57  57 100 N6        29.93S
NEWPORT        FAIR      54  53  97 W8        29.95R
WALNUT RIDGE   FAIR      54  53  97 N9        29.94R
BLYTHEVILLE    MOCLDY    54  52  93 NW6       29.91F
$$

ARZ022-023-033-042-044-240900-
CENTRAL ARKANSAS

CITY           SKY/WX    TMP DP  RH WIND       PRES   REMARKS
LITTLE ROCK    CLEAR     53  53 100 NW5       29.97S
N LITTLE ROCK    N/A     52  51  98 CALM      29.95R
JACKSONVILLE   CLEAR     50  50 100 CALM      29.96R
CONWAY         PTSUNNY   50  50 100 CALM      29.97S FOG
SEARCY         FAIR      52  52 100 MISG        N/A
HOT SPRINGS    CLEAR     54  54 100 CALM      29.99R
RUSSELLVILLE   CLEAR     49  48  97 CALM      29.97S
CLINTON        FAIR      48  48 100 CALM      29.97S
$$

ARZ036-240900-
EAST ARKANSAS

CITY           SKY/WX    TMP DP  RH WIND       PRES   REMARKS
WEST MEMPHIS   CLOUDY    55  55 100 CALM      29.92S FOG
$$

ARZ050-053-066-070-073-240900-
SOUTHWEST ARKANSAS

CITY           SKY/WX    TMP DP  RH WIND       PRES   REMARKS
ARKADELPHIA    FAIR      54  53  97 CALM      29.99S
CAMDEN         FAIR      54  52  94 CALM      29.98S
TEXARKANA      CLEAR     54  53  97 SW5       29.99S
EL DORADO      FAIR      54  54 100 CALM      29.98F
DE QUEEN       CLEAR     50  50 100 E3        29.98S FOG
$$

ARZ056-057-069-240900-
SOUTHEAST ARKANSAS

CITY           SKY/WX    TMP DP  RH WIND       PRES   REMARKS
PINE BLUFF     FAIR      54  52  93 W6        29.97R
STUTTGART      CLOUDY    57  56  96 NW8       29.96S
MONTICELLO     FAIR      53  51  93 CALM      29.96S

$$






USA.gov is the U.S. government's official web portal to all federal, state and local government web resources and services.